User: anonymous
Location: Young's Pond
(41.2695°N, 72.7766°W)
Time: 18:10:15
(UTC-04:00)
Language:

CZ-4B R/B - Orbit

View from above orbital plane
View from above orbital plane
View from above satellite
View from above satellite

Ground track
Ground track

The orbit data is extracted from the following two-line orbital elements,

1 29093U 06015B   14263.83050927  .00008087  00000-0  29017-3 0  4052
2 29093 097.5164 343.7009 0087698 284.9940 190.2164 15.25335945464152
Epoch (UTC): 20 September 2014 19:55:56
Eccentricity: 0.0087698
inclination: 97.5164°
perigee height: 429 km
apogee height: 550 km
right ascension of ascending node: 343.7009°
argument of perigee: 284.9940°
revolutions per day: 15.25335945
mean anomaly at epoch: 190.2164°
orbit number at epoch: 46415

The dashed part of the orbit path shows where the satellite is in the earth's shadow,  

DLR